This is the latest recevied weather packets stored in our database for station/object XE2OR-10. If no packets are shown the sender has not sent any weather packets the latest 10 day(s).
| Time | Temp. | Humidity | Pressure | Rain* | Wind** | Luminosity | Snow |
|---|---|---|---|---|---|---|---|
| 1777569233 | 22.22° C | 90% | 1015.2 hPa | 0 mm | - | 131 W/m² | - |
| 1777568929 | 22.22° C | 91% | 1015.2 hPa | 0 mm | - | 130 W/m² | - |
| 1777568629 | 22.22° C | 91% | 1015.3 hPa | 0 mm | - | 85 W/m² | - |
| 1777568329 | 22.22° C | 91% | 1015.3 hPa | 0 mm | - | 124 W/m² | - |
| 1777568033 | 22.22° C | 91% | 1015.3 hPa | 0 mm | - | 126 W/m² | - |
| 1777567729 | 22.22° C | 91% | 1015.2 hPa | 0 mm | - | 149 W/m² | - |
| 1777567433 | 22.78° C | 90% | 1015.1 hPa | 0 mm | - | 110 W/m² | - |
| 1777567129 | 22.78° C | 89% | 1015.2 hPa | 0 mm | - | 110 W/m² | - |
| 1777566829 | 22.78° C | 89% | 1015.4 hPa | 0 mm | - | 144 W/m² | - |
| 1777566529 | 23.33° C | 89% | 1015.2 hPa | 0 mm | - | 139 W/m² | - |
| 1777566232 | 23.33° C | 89% | 1015.4 hPa | 0 mm | - | 127 W/m² | - |
| 1777565929 | 22.78° C | 89% | 1015.3 hPa | 0 mm | - | 167 W/m² | - |
| 1777565632 | 22.78° C | 89% | 1015.3 hPa | 0 mm | - | 149 W/m² | - |
| 1777565329 | 22.78° C | 89% | 1015.4 hPa | 0 mm | - | 123 W/m² | - |
| 1777565030 | 23.33° C | 89% | 1015.2 hPa | 0 mm | - | 137 W/m² | - |
| 1777564729 | 22.78° C | 89% | 1015.4 hPa | 0 mm | - | 141 W/m² | - |
| 1777564433 | 23.33° C | 89% | 1015.4 hPa | 0 mm | - | 134 W/m² | - |
| 1777564134 | 22.78° C | - | - | - | - | - | - |
| 1777564129 | 22.78° C | 90% | 1015.5 hPa | 0 mm | - | 136 W/m² | - |
| 1777563833 | 22.78° C | 90% | 1015.4 hPa | 0 mm | - | 148 W/m² | - |
| 1777563529 | 22.22° C | 91% | 1015.5 hPa | 0 mm | - | 128 W/m² | - |
| 1777563229 | 22.22° C | 91% | 1015.4 hPa | 0 mm | - | 120 W/m² | - |
| 1777562930 | 22.22° C | 91% | 1015.4 hPa | 0 mm | - | 102 W/m² | - |
| 1777562632 | 22.22° C | 91% | 1015.6 hPa | 0 mm | - | 120 W/m² | - |
| 1777562329 | 22.22° C | 92% | 1015.5 hPa | 0 mm | - | 126 W/m² | - |
* Rain latest hour (hover to see other rain measurements)
** Current wind speed in m/s (hover to see current wind gust speed)